TimeAKST,TemperatureF,Dew PointF,Humidity,Sea Level PressureIn,VisibilityMPH,Wind Direction,Wind SpeedMPH,Gust SpeedMPH,PrecipitationIn,Events,Conditions,WindDirDegrees,DateUTC
12:53 AM,39.0,32.0,76,29.75,10.0,SSW,34.5,48.3,0.00,Rain,Light Rain,210,2013-02-11 09:53:00
1:53 AM,39.0,30.9,73,29.73,10.0,SSW,29.9,43.7,0.00,Rain,Light Rain,210,2013-02-11 10:53:00
3:53 AM,39.0,32.0,76,29.69,10.0,SSW,31.1,44.9,0.00,,Overcast,210,2013-02-11 12:53:00
4:53 AM,39.0,32.0,76,29.68,10.0,SSW,27.6,40.3,0.00,Rain,Light Rain,210,2013-02-11 13:53:00
5:53 AM,39.9,32.0,73,29.67,10.0,SSW,34.5,46.0,0.00,,Overcast,210,2013-02-11 14:53:00
6:53 AM,39.9,32.0,73,29.69,10.0,SSW,27.6,36.8,0.00,Rain,Light Rain,210,2013-02-11 15:53:00
7:53 AM,39.9,32.0,73,29.70,10.0,SSW,27.6,36.8,0.00,Rain,Light Rain,210,2013-02-11 16:53:00
8:53 AM,39.9,32.0,73,29.71,10.0,SSW,26.5,35.7,0.00,Rain,Light Rain,210,2013-02-11 17:53:00
9:53 AM,39.9,32.0,73,29.72,10.0,SSW,25.3,33.4,0.00,Rain,Light Rain,210,2013-02-11 18:53:00
10:53 AM,41.0,32.0,70,29.74,10.0,SSW,16.1,29.9,0.00,Rain,Light Rain,200,2013-02-11 19:53:00
11:53 AM,42.1,30.9,65,29.73,10.0,SSW,24.2,29.9,0.00,Rain,Light Rain,210,2013-02-11 20:53:00
12:53 PM,41.0,30.0,65,29.76,10.0,SW,28.8,35.7,0.00,Rain,Light Rain,220,2013-02-11 21:53:00
1:53 PM,39.9,32.0,73,29.78,10.0,SSW,26.5,38.0,0.00,Rain,Light Rain,210,2013-02-11 22:53:00
2:53 PM,39.0,30.9,73,29.79,10.0,SSW,25.3,35.7,0.00,Rain,Light Rain,210,2013-02-11 23:53:00
3:53 PM,39.0,30.9,73,29.80,10.0,SSW,17.3,-,0.00,Rain,Light Rain,200,2013-02-12 00:53:00
4:53 PM,39.0,28.9,67,29.81,10.0,SSW,11.5,20.7,0.00,Rain,Light Rain,200,2013-02-12 01:53:00
5:53 PM,39.0,28.9,67,29.79,10.0,South,15.0,25.3,0.00,Rain,Light Rain,190,2013-02-12 02:53:00
6:53 PM,37.9,30.0,73,29.79,10.0,SSW,12.7,-,0.00,Rain,Light Rain,200,2013-02-12 03:53:00
7:53 PM,37.9,30.9,76,29.79,10.0,SSW,16.1,23.0,0.00,Rain,Light Rain,200,2013-02-12 04:53:00
8:53 PM,37.9,30.9,76,29.78,10.0,SSW,16.1,21.9,0.00,Rain,Light Rain,200,2013-02-12 05:53:00
9:53 PM,37.0,30.0,76,29.77,10.0,SSW,15.0,-,0.00,Rain,Light Rain,200,2013-02-12 06:53:00
10:53 PM,37.0,30.0,76,29.76,10.0,SSW,10.4,-,0.00,Rain,Light Rain,200,2013-02-12 07:53:00
11:53 PM,37.0,30.9,79,29.75,10.0,SSW,13.8,-,0.00,Rain,Light Rain,200,2013-02-12 08:53:00